User: anonymous
Location: Unspecified
(0.0000°N, 0.0000°E)
Time: 00:07:14
(UTC+02:00)
Language:

ARIANE 5 R/B - Orbit

View from above orbital plane
View from above orbital plane
View from above satellite
View from above satellite

Ground track
Ground track

The orbit data is extracted from the following two-line orbital elements,

1 28379U 04027B   14113.33718367 -.00000012  00000-0  25086-2 0  6242
2 28379 007.2752 357.8897 7293535 026.9820 075.6346 02.07920264 74196
Epoch (UTC): 23 April 2014 08:05:32
Eccentricity: 0.7293535
inclination: 7.2752°
perigee height: 640 km
apogee height: 38464 km
right ascension of ascending node: 357.8897°
argument of perigee: 26.9820°
revolutions per day: 2.07920264
mean anomaly at epoch: 75.6346°
orbit number at epoch: 7419

The dashed part of the orbit path shows where the satellite is in the earth's shadow,  

DLR